TimeCST,TemperatureF,Dew PointF,Humidity,Sea Level PressureIn,VisibilityMPH,Wind Direction,Wind SpeedMPH,Gust SpeedMPH,PrecipitationIn,Events,Conditions,WindDirDegrees,DateUTC
12:53 AM,21.9,15.1,75,30.26,10.0,West,12.7,18.4,N/A,,Overcast,260,2012-11-13 06:53:00
1:53 AM,21.9,14.0,72,30.29,10.0,West,12.7,-,N/A,,Overcast,270,2012-11-13 07:53:00
2:53 AM,21.0,15.1,78,30.31,10.0,West,11.5,-,N/A,,Overcast,260,2012-11-13 08:53:00
3:53 AM,19.9,14.0,78,30.32,10.0,WSW,9.2,-,N/A,,Overcast,240,2012-11-13 09:53:00
4:53 AM,19.9,14.0,78,30.34,10.0,WSW,11.5,-,N/A,,Overcast,240,2012-11-13 10:53:00
5:53 AM,19.9,14.0,78,30.36,10.0,WSW,9.2,-,N/A,,Overcast,250,2012-11-13 11:53:00
6:33 AM,19.4,14.0,80,30.29,10.0,WSW,9.2,-,N/A,,Overcast,250,2012-11-13 12:33:00
6:53 AM,19.0,14.0,81,30.39,10.0,WSW,6.9,-,N/A,,Overcast,240,2012-11-13 12:53:00
7:53 AM,19.9,14.0,78,30.40,10.0,West,5.8,-,N/A,,Overcast,260,2012-11-13 13:53:00
8:53 AM,21.0,15.1,78,30.42,10.0,WSW,9.2,-,N/A,,Overcast,250,2012-11-13 14:53:00
9:34 AM,21.2,15.8,80,30.33,10.0,SW,5.8,-,N/A,,Scattered Clouds,230,2012-11-13 15:34:00
9:53 AM,23.0,16.0,74,30.42,10.0,SW,4.6,-,N/A,,Partly Cloudy,230,2012-11-13 15:53:00
10:53 AM,26.1,17.1,69,30.42,10.0,WSW,8.1,-,N/A,,Clear,240,2012-11-13 16:53:00
11:53 AM,28.9,17.1,61,30.39,10.0,Variable,6.9,-,N/A,,Clear,0,2012-11-13 17:53:00
12:53 PM,32.0,18.0,56,30.37,10.0,WSW,8.1,-,N/A,,Clear,250,2012-11-13 18:53:00
1:53 PM,34.0,17.1,50,30.37,10.0,SW,9.2,-,N/A,,Clear,230,2012-11-13 19:53:00
2:53 PM,35.1,16.0,46,30.37,10.0,SW,8.1,-,N/A,,Clear,220,2012-11-13 20:53:00
3:53 PM,33.1,15.1,48,30.38,10.0,SSW,8.1,-,N/A,,Clear,200,2012-11-13 21:53:00
4:53 PM,30.0,15.1,54,30.40,10.0,South,4.6,-,N/A,,Clear,190,2012-11-13 22:53:00
5:53 PM,30.0,17.1,59,30.40,10.0,SSW,6.9,-,N/A,,Clear,200,2012-11-13 23:53:00
6:53 PM,28.9,18.0,64,30.42,10.0,SSW,5.8,-,N/A,,Clear,210,2012-11-14 00:53:00
7:53 PM,27.0,17.1,66,30.42,10.0,SSW,3.5,-,N/A,,Clear,210,2012-11-14 01:53:00
8:53 PM,28.0,18.0,66,30.42,10.0,SSW,4.6,-,N/A,,Clear,200,2012-11-14 02:53:00
9:53 PM,28.0,17.1,63,30.41,10.0,SSW,5.8,-,N/A,,Clear,200,2012-11-14 03:53:00
10:53 PM,28.9,18.0,64,30.42,10.0,SSW,6.9,-,N/A,,Clear,210,2012-11-14 04:53:00
11:53 PM,30.0,18.0,61,30.42,10.0,SSW,6.9,-,N/A,,Overcast,210,2012-11-14 05:53:00